�N����,����,�~����,�C��,���x,�C��,����,���ϕ���,�ő�u�ԕ���,�ő厞����,���˗�,�I�_���x,�n�����x,�ő啗���N��,DTYPE
"23/03/17","00:10",0.0,12.6,85.1,1018.7,310.5,2.6,3.7,339.0,0.00,10.2,12.9,"00:08:30",1
"23/03/17","00:20",0.0,12.5,85.4,1019.0,325.2,2.5,3.5,331.6,0.00,10.2,12.9,"00:14:46",1
"23/03/17","00:30",0.0,12.3,85.6,1018.7,327.9,3.0,4.2,336.4,0.00,10.0,12.8,"00:23:18",1
"23/03/17","00:40",0.0,12.2,85.8,1019.0,314.8,2.7,3.6,330.2,0.00,9.9,13.0,"00:35:16",1
"23/03/17","00:50",0.0,12.1,86.0,1018.5,320.6,2.1,3.3,321.9,0.00,9.9,12.9,"00:40:36",1
"23/03/17","01:00",0.0,12.1,86.2,1018.7,325.3,2.5,3.7,325.3,0.00,9.9,12.8,"00:57:36",1
"23/03/17","01:10",0.0,12.0,86.2,1018.5,297.4,2.0,2.6,325.8,0.00,9.8,12.7,"01:01:42",1
"23/03/17","01:20",0.0,12.0,86.3,1018.5,317.7,1.7,2.5,326.7,0.00,9.8,12.9,"01:18:36",1
"23/03/17","01:30",0.0,12.0,86.4,1018.7,326.1,2.0,2.9,319.3,0.00,9.8,12.7,"01:25:18",1
"23/03/17","01:40",0.0,11.9,86.6,1018.7,323.5,1.8,2.4,340.4,0.00,9.8,12.6,"01:36:38",1
"23/03/17","01:50",0.0,11.8,86.6,1018.5,322.8,1.6,2.4,322.8,0.00,9.7,12.8,"01:44:26",1
"23/03/17","02:00",0.0,11.9,86.5,1018.7,323.5,2.1,3.6,343.9,0.00,9.8,12.9,"01:55:40",1
"23/03/17","02:10",0.0,11.8,86.3,1018.7,320.2,2.7,4.3,321.2,0.00,9.6,12.8,"02:08:30",1
"23/03/17","02:20",0.0,11.8,86.0,1018.7,324.2,3.5,5.8,335.2,0.00,9.6,12.7,"02:15:28",1
"23/03/17","02:30",0.0,11.6,85.8,1018.5,330.4,3.1,5.6,334.9,0.00,9.3,12.7,"02:25:12",1
"23/03/17","02:40",0.0,11.6,85.6,1018.5,334.9,3.2,5.1,336.1,0.00,9.3,12.6,"02:31:38",1
"23/03/17","02:50",0.0,11.4,85.6,1018.2,329.1,3.5,5.6,332.7,0.00,9.1,12.6,"02:44:28",1
"23/03/17","03:00",0.0,11.4,85.6,1018.7,293.9,2.6,3.9,314.8,0.00,9.1,12.7,"02:50:08",1
"23/03/17","03:10",0.0,11.4,85.4,1018.5,331.5,3.1,4.7,319.6,0.00,9.1,12.7,"03:06:18",1
"23/03/17","03:20",0.0,11.4,85.3,1018.2,334.9,3.2,5.9,331.3,0.00,9.1,12.5,"03:14:06",1
"23/03/17","03:30",0.0,11.2,85.2,1018.5,335.6,3.6,5.4,340.8,0.00,8.8,12.5,"03:28:26",1
"23/03/17","03:40",0.0,11.2,85.0,1018.0,338.7,3.7,6.5,341.2,0.00,8.8,12.5,"03:31:50",1
"23/03/17","03:50",0.0,11.2,84.8,1018.2,329.4,3.6,5.8,325.7,0.00,8.8,12.6,"03:43:44",1
"23/03/17","04:00",0.0,11.2,84.7,1018.0,322.6,2.7,4.1,336.8,0.00,8.8,12.3,"03:52:38",1
"23/03/17","04:10",0.0,11.3,84.5,1018.2,320.5,3.5,4.5,329.3,0.00,8.8,12.5,"04:02:20",1
"23/03/17","04:20",0.0,11.3,84.4,1018.0,316.6,3.1,5.0,311.4,0.00,8.8,12.4,"04:10:32",1
"23/03/17","04:30",0.0,11.2,84.6,1017.8,314.4,3.1,4.1,318.7,0.00,8.7,12.4,"04:27:44",1
"23/03/17","04:40",0.0,11.2,84.9,1018.2,319.9,3.2,4.2,329.4,0.00,8.8,12.4,"04:33:40",1
"23/03/17","04:50",0.0,11.1,85.2,1018.5,326.3,3.4,4.4,325.7,0.00,8.8,12.4,"04:48:02",1
"23/03/17","05:00",0.0,11.0,85.3,1018.2,311.7,3.0,4.9,315.2,0.00,8.7,12.3,"04:52:26",1
"23/03/17","05:10",0.0,11.0,85.3,1018.2,309.2,2.8,3.6,313.9,0.00,8.7,12.2,"05:03:48",1
"23/03/17","05:20",0.0,10.8,85.3,1018.2,326.6,2.3,3.2,314.8,0.00,8.5,12.3,"05:18:18",1
"23/03/17","05:30",0.0,10.8,85.4,1018.2,328.3,2.6,4.2,344.5,0.00,8.5,12.3,"05:28:14",1
"23/03/17","05:40",0.0,10.8,85.3,1018.5,333.2,3.9,7.7,329.7,0.00,8.5,12.2,"05:37:46",1
"23/03/17","05:50",0.0,10.6,85.0,1018.7,339.6,3.9,5.7,338.1,0.00,8.2,12.4,"05:42:12",1
"23/03/17","06:00",0.0,10.5,85.1,1018.5,335.5,3.7,7.2,335.4,0.00,8.1,12.2,"05:51:36",1
"23/03/17","06:10",0.0,10.4,85.1,1018.5,334.7,4.4,9.1,334.6,0.00,8.0,12.2,"06:06:06",1
"23/03/17","06:20",0.0,10.3,85.0,1018.7,337.0,3.9,7.5,341.6,0.00,7.9,12.1,"06:19:54",1
"23/03/17","06:30",0.0,10.3,85.0,1018.7,329.7,4.1,6.5,326.1,0.00,7.9,12.1,"06:23:12",1
"23/03/17","06:40",0.0,10.3,84.8,1018.7,341.8,4.2,7.4,339.6,0.00,7.9,12.2,"06:32:18",1
"23/03/17","06:50",0.0,10.3,84.9,1019.0,337.5,4.4,7.0,342.4,0.00,7.9,11.9,"06:46:02",1
"23/03/17","07:00",0.0,10.2,84.9,1019.0,331.3,4.2,6.7,341.0,0.00,7.8,12.1,"06:52:56",1
"23/03/17","07:10",0.0,10.2,85.0,1019.2,338.3,3.4,6.7,324.0,0.00,7.8,12.1,"07:00:40",1
"23/03/17","07:20",0.0,10.3,85.1,1019.0,339.4,3.5,6.0,336.1,0.00,7.9,11.9,"07:19:58",1
"23/03/17","07:30",0.0,10.3,84.9,1019.2,343.9,3.5,6.5,344.9,0.01,7.9,12.2,"07:29:42",1
"23/03/17","07:40",0.0,10.4,84.8,1019.2,343.0,3.5,6.5,347.7,0.02,8.0,11.8,"07:38:20",1
"23/03/17","07:50",0.0,10.5,84.4,1019.4,324.6,4.1,5.8,331.8,0.02,8.0,12.0,"07:42:08",1
"23/03/17","08:00",0.0,10.5,84.1,1019.4,333.7,3.9,7.3,328.9,0.02,8.0,11.9,"07:53:00",1
"23/03/17","08:10",0.0,10.7,83.9,1019.7,335.4,3.7,6.0,342.4,0.02,8.1,12.0,"08:05:18",1
"23/03/17","08:20",0.0,10.7,83.6,1019.7,329.2,4.0,5.9,319.3,0.03,8.1,12.0,"08:17:12",1
"23/03/17","08:30",0.0,10.9,83.3,1019.7,339.8,3.1,5.6,319.6,0.07,8.2,11.9,"08:21:18",1
"23/03/17","08:40",0.0,11.1,82.8,1019.4,332.8,3.6,6.3,309.0,0.09,8.3,12.0,"08:31:38",1
"23/03/17","08:50",0.0,11.3,82.1,1019.0,315.7,1.0,4.7,313.9,0.10,8.4,12.0,"08:48:52",1
"23/03/17","09:00",0.0,11.4,81.3,1019.2,350.6,1.5,3.2,337.8,0.10,8.4,11.8,"08:58:30",1
"23/03/17","09:10",0.0,11.7,80.6,1019.2,350.2,2.1,3.9,335.8,0.16,8.5,12.0,"09:05:58",1
"23/03/17","09:20",0.0,12.2,79.6,1019.2,342.9,2.3,4.7,337.7,0.22,8.8,11.7,"09:10:20",1
"23/03/17","09:30",0.0,12.3,78.2,1019.4,337.3,3.5,5.9,340.6,0.22,8.7,11.9,"09:22:56",1
"23/03/17","09:40",0.0,12.7,77.2,1019.4,334.9,2.5,4.4,326.5,0.28,8.9,11.9,"09:31:14",1
"23/03/17","09:50",0.0,12.6,75.2,1019.4,346.0,1.7,4.4,349.9,0.18,8.4,11.8,"09:47:00",1
"23/03/17","10:00",0.0,12.2,75.1,1019.2,335.7,3.6,5.7,350.6,0.16,8.0,12.0,"09:57:54",1
"23/03/17","10:10",0.0,12.1,75.1,1019.7,336.2,3.7,6.0,335.4,0.12,7.9,12.0,"10:06:54",1
"23/03/17","10:20",0.0,12.2,75.0,1019.2,334.4,3.1,5.2,342.6,0.11,7.9,12.0,"10:19:46",1
"23/03/17","10:30",0.0,12.2,75.2,1019.2,333.6,3.7,6.7,318.1,0.09,8.0,11.9,"10:22:18",1
"23/03/17","10:40",0.0,12.0,75.2,1019.0,334.3,3.9,6.3,327.6,0.11,7.8,12.1,"10:35:46",1
"23/03/17","10:50",0.0,12.3,75.1,1018.7,335.6,3.6,5.5,310.0,0.16,8.1,11.9,"10:42:16",1
"23/03/17","11:00",0.0,12.4,73.9,1019.0,337.2,3.4,5.7,339.0,0.17,7.9,11.8,"10:58:36",1
"23/03/17","11:10",0.0,12.3,73.5,1019.0,339.9,3.6,5.5,334.1,0.16,7.7,11.9,"11:07:26",1
"23/03/17","11:20",0.0,12.5,73.2,1018.7,340.6,4.0,6.8,347.3,0.26,7.9,11.9,"11:18:24",1
"23/03/17","11:30",0.0,12.9,72.4,1018.7,339.9,3.6,5.2,330.3,0.29,8.1,12.0,"11:27:50",1
"23/03/17","11:40",0.0,12.8,71.9,1018.5,341.4,3.9,5.7,344.9,0.26,7.9,12.1,"11:39:12",1
"23/03/17","11:50",0.0,13.1,70.8,1018.2,347.8,3.2,6.3,352.0,0.30,8.0,12.0,"11:48:04",1
"23/03/17","12:00",0.0,13.4,69.9,1018.0,337.6,3.0,6.3,350.1,0.32,8.1,12.1,"11:51:04",1
"23/03/17","12:10",0.0,13.8,69.0,1017.8,348.6,2.0,4.5,330.4,0.33,8.3,12.0,"12:05:28",1
"23/03/17","12:20",0.0,14.1,67.5,1017.8,313.1,2.1,4.8,324.3,0.34,8.2,12.1,"12:18:48",1
"23/03/17","12:30",0.0,14.2,67.5,1017.3,327.4,2.7,4.8,319.5,0.39,8.3,12.0,"12:25:28",1
"23/03/17","12:40",0.0,14.6,66.3,1017.8,343.4,2.5,4.4,337.8,0.41,8.4,12.2,"12:35:12",1
"23/03/17","12:50",0.0,14.8,65.3,1017.8,337.8,2.1,3.5,326.5,0.40,8.4,12.2,"12:49:44",1
"23/03/17","13:00",0.0,14.5,65.0,1017.3,314.8,2.6,4.9,324.5,0.34,8.0,12.4,"12:57:12",1
"23/03/17","13:10",0.0,14.6,65.0,1017.3,276.1,2.8,6.3,326.3,0.39,8.1,12.2,"13:09:12",1
"23/03/17","13:20",0.0,14.9,63.8,1017.1,308.9,3.2,5.6,328.7,0.41,8.2,12.4,"13:19:04",1
"23/03/17","13:30",0.0,14.9,62.2,1016.6,335.7,3.2,5.0,319.0,0.31,7.8,12.6,"13:20:40",1
"23/03/17","13:40",0.0,15.4,61.6,1016.4,340.8,3.4,6.0,341.2,0.45,8.1,12.4,"13:37:12",1
"23/03/17","13:50",0.0,15.3,60.1,1016.1,337.1,3.2,5.7,348.0,0.38,7.7,12.7,"13:43:28",1
"23/03/17","14:00",0.0,15.2,59.6,1015.6,335.6,3.7,6.6,331.3,0.35,7.4,12.8,"13:55:52",1
"23/03/17","14:10",0.0,15.3,59.3,1015.9,346.7,3.5,5.9,348.3,0.31,7.5,12.7,"14:07:44",1
"23/03/17","14:20",0.0,15.3,58.5,1015.6,346.7,4.0,7.9,340.3,0.35,7.3,12.7,"14:19:04",1
"23/03/17","14:30",0.0,15.1,58.9,1015.6,346.9,3.7,6.0,357.1,0.29,7.2,12.8,"14:26:08",1
"23/03/17","14:40",0.0,14.4,59.4,1015.2,347.2,4.6,8.6,352.6,0.22,6.6,12.9,"14:33:04",1
"23/03/17","14:50",0.0,14.3,60.1,1015.6,344.1,4.2,7.9,348.7,0.23,6.7,12.9,"14:42:08",1
"23/03/17","15:00",0.0,14.1,60.0,1015.4,344.4,4.0,6.7,347.9,0.19,6.5,12.9,"14:50:30",1
"23/03/17","15:10",0.0,13.8,60.3,1015.6,348.4,3.6,6.8,348.3,0.15,6.3,12.9,"15:05:18",1
"23/03/17","15:20",0.0,13.7,61.1,1015.6,347.6,3.9,6.4,347.6,0.17,6.4,13.0,"15:12:02",1
"23/03/17","15:30",0.0,13.8,61.8,1015.6,349.9,3.2,5.6,329.4,0.16,6.6,12.9,"15:23:46",1
"23/03/17","15:40",0.0,13.8,61.3,1015.6,337.6,3.2,6.3,352.1,0.14,6.5,12.8,"15:33:30",1
"23/03/17","15:50",0.0,13.8,60.6,1015.9,330.1,3.1,4.8,340.0,0.12,6.4,12.8,"15:43:32",1
"23/03/17","16:00",0.0,13.9,60.3,1015.4,332.8,2.5,4.2,338.2,0.13,6.4,12.8,"15:50:36",1
"23/03/17","16:10",0.0,13.7,59.4,1015.4,336.4,2.8,4.7,348.0,0.11,6.0,12.9,"16:04:38",1
"23/03/17","16:20",0.0,13.7,58.9,1015.6,318.1,3.0,4.5,327.7,0.11,5.9,12.9,"16:10:44",1
"23/03/17","16:30",0.0,13.6,58.7,1015.6,330.0,2.5,4.1,320.7,0.09,5.7,12.9,"16:26:34",1
"23/03/17","16:40",0.0,13.4,58.1,1015.6,346.4,2.5,4.7,343.7,0.06,5.4,12.9,"16:31:54",1
"23/03/17","16:50",0.0,13.1,58.7,1015.4,341.4,2.1,3.5,349.8,0.04,5.2,13.1,"16:47:24",1
"23/03/17","17:00",0.0,12.8,58.2,1015.4,338.1,2.5,4.4,330.6,0.03,4.8,12.9,"16:55:54",1
"23/03/17","17:10",0.0,12.6,57.8,1015.6,328.6,2.8,4.8,323.7,0.03,4.6,12.9,"17:09:24",1
"23/03/17","17:20",0.0,12.5,57.4,1014.9,317.6,3.1,5.2,303.8,0.02,4.4,12.9,"17:11:28",1
"23/03/17","17:30",0.0,12.5,57.5,1015.2,326.3,3.5,5.7,346.9,0.01,4.4,12.8,"17:23:10",1
"23/03/17","17:40",0.0,12.3,60.0,1015.6,331.9,3.2,4.4,349.7,0.01,4.8,12.7,"17:30:08",1
"23/03/17","17:50",0.0,12.1,61.0,1015.6,327.5,3.0,4.8,326.6,0.00,4.9,12.9,"17:40:36",1
"23/03/17","18:00",0.0,12.1,60.5,1015.6,302.8,2.7,3.9,330.6,0.00,4.7,12.8,"17:50:32",1
"23/03/17","18:10",0.0,11.9,60.7,1015.4,319.5,2.7,3.9,324.3,0.00,4.6,12.7,"18:08:02",1
"23/03/17","18:20",0.0,11.8,61.0,1015.9,327.5,3.0,4.0,334.3,0.00,4.6,13.0,"18:11:24",1
"23/03/17","18:30",0.0,11.6,61.0,1015.4,333.9,2.8,4.3,341.7,0.00,4.4,12.6,"18:29:48",1
"23/03/17","18:40",0.0,11.5,58.5,1015.4,318.5,3.4,4.4,325.6,0.00,3.7,12.8,"18:34:22",1
"23/03/17","18:50",0.0,11.5,58.5,1015.6,296.7,2.8,4.0,313.7,0.00,3.7,12.7,"18:40:58",1
"23/03/17","19:00",0.0,11.3,59.4,1015.4,291.1,2.3,3.2,294.7,0.00,3.7,12.6,"18:59:14",1
"23/03/17","19:10",0.0,11.3,59.4,1015.2,287.3,2.6,4.0,262.1,0.00,3.7,12.8,"19:07:00",1
"23/03/17","19:20",0.0,11.2,61.1,1015.4,296.4,2.8,4.1,309.8,0.00,4.0,12.6,"19:13:06",1
"23/03/17","19:30",0.0,11.0,60.9,1015.4,324.3,3.4,4.5,321.8,0.00,3.8,12.4,"19:29:22",1
"23/03/17","19:40",0.0,10.9,60.8,1015.9,324.7,4.0,6.4,335.7,0.00,3.7,12.5,"19:37:52",1
"23/03/17","19:50",0.0,10.9,61.4,1015.4,321.3,3.5,5.0,323.4,0.00,3.8,12.6,"19:47:28",1
"23/03/17","20:00",0.0,10.7,61.7,1015.9,326.8,3.2,4.2,294.2,0.00,3.7,12.5,"19:54:16",1
"23/03/17","20:10",0.0,10.8,61.1,1016.1,326.9,3.5,4.3,315.5,0.00,3.7,12.4,"20:02:48",1
"23/03/17","20:20",0.0,10.6,61.8,1016.1,332.3,3.7,5.9,344.4,0.00,3.6,12.5,"20:12:24",1
"23/03/17","20:30",0.0,10.6,62.8,1016.1,328.5,3.1,4.3,341.6,0.00,3.9,12.3,"20:25:52",1
"23/03/17","20:40",0.0,10.5,63.5,1016.1,325.3,3.6,4.5,332.9,0.00,3.9,12.4,"20:32:48",1
"23/03/17","20:50",0.0,10.3,66.2,1016.4,314.8,3.0,4.0,314.4,0.00,4.3,12.4,"20:42:56",1
"23/03/17","21:00",0.0,10.1,68.1,1016.4,329.7,3.2,4.4,330.0,0.00,4.5,12.3,"20:51:12",1
"23/03/17","21:10",0.0,9.6,71.4,1016.4,325.7,3.2,4.1,331.6,0.00,4.7,12.3,"21:04:58",1
"23/03/17","21:20",0.0,9.4,73.0,1016.1,316.1,3.2,4.8,315.0,0.00,4.9,12.0,"21:10:48",1
"23/03/17","21:30",0.2,9.4,75.0,1015.9,300.6,1.7,2.2,317.9,0.00,5.2,12.2,"21:24:30",1
"23/03/17","21:40",0.2,8.9,77.9,1015.9,315.4,2.2,3.3,318.8,0.00,5.3,12.4,"21:32:02",1
"23/03/17","21:50",0.2,8.7,80.7,1016.1,315.4,1.3,2.4,337.2,0.00,5.6,12.1,"21:41:12",1
"23/03/17","22:00",0.2,8.6,83.5,1015.9,279.1,1.6,2.7,318.5,0.00,6.0,12.1,"21:57:52",1
"23/03/17","22:10",0.2,8.3,85.4,1015.6,313.5,2.1,3.4,340.0,0.00,6.0,12.0,"22:05:52",1
"23/03/17","22:20",0.2,8.2,86.7,1015.6,316.9,1.3,2.2,341.0,0.00,6.2,12.1,"22:10:10",1
"23/03/17","22:30",0.6,8.1,87.6,1015.9,293.6,1.2,1.8,319.4,0.00,6.2,12.1,"22:29:04",1
"23/03/17","22:40",0.2,8.2,88.6,1015.9,301.5,2.1,3.2,313.3,0.00,6.5,12.0,"22:32:00",1
"23/03/17","22:50",0.2,8.2,89.2,1015.4,297.7,1.2,2.2,317.8,0.00,6.6,12.0,"22:40:32",1
"23/03/17","23:00",0.2,8.1,89.7,1015.4,266.1,0.5,0.9,271.0,0.00,6.6,12.0,"22:50:02",1
"23/03/17","23:10",0.2,8.2,90.5,1015.4,287.1,1.6,2.0,278.1,0.00,6.8,11.9,"23:05:28",1
"23/03/17","23:20",0.2,8.1,91.0,1014.7,294.6,1.5,2.0,309.8,0.00,6.8,11.9,"23:11:04",1
"23/03/17","23:30",0.2,8.1,91.4,1015.2,305.9,1.3,2.0,318.7,0.00,6.8,12.0,"23:28:16",1
"23/03/17","23:40",0.2,8.1,91.8,1015.2,288.2,1.0,1.6,319.4,0.00,6.9,12.0,"23:37:36",1
"23/03/17","23:50",0.4,8.2,92.2,1014.9,322.7,1.3,1.7,317.3,0.00,7.1,11.9,"23:41:12",1
"23/03/17","24:00",0.2,8.1,92.6,1014.9,322.2,1.2,1.7,330.2,0.00,7.0,11.6,"23:53:06",1
